N5YHM-13 Weather Reports


time (UTC)temp
C
wind
direction
speed
KPH
gust
KPH
rain 1hr
cm
rain 24hr
cm
rain mn
cm
humidity
%
barometer
mb
20260504150924 21 249 0.0 0.0 0.00 0.00 0.00 63 1020.1
20260504150421 21 264 0.0 3.2 0.00 0.00 0.00 66 1020.1
20260504140846 18 221 0.0 0.0 0.00 0.00 0.00 77 1020.0
20260504140343 18 221 0.0 0.0 0.00 0.00 0.00 78 1020.1
20260504130811 13 221 0.0 0.0 0.00 0.00 0.00 98 1020.1
20260504130307 13 221 0.0 0.0 0.00 0.00 0.00 98 1020.2
20260504120231 10 220 0.0 0.0 0.00 0.00 0.00 99 1019.6
20260504110658 10 220 0.0 0.0 0.00 0.00 0.00 98 1019.5
20260504110154 10 220 0.0 0.0 0.00 0.00 0.00 98 1019.4
20260504100119 10 220 0.0 0.0 0.00 0.00 0.00 98 1019.5
20260504081512 11 220 0.0 0.0 0.00 0.00 0.00 98 1019.7
20260504081007 11 220 0.0 0.0 0.00 0.00 0.00 98 1019.8
20260504080504 11 221 0.0 0.0 0.00 0.00 0.00 98 1019.8
20260504050305 13 221 0.0 0.0 0.00 0.00 0.00 97 1020.7
20260504045802 13 221 0.0 0.0 0.00 6.73 6.73 97 1020.8
20260504045257 13 221 0.0 0.0 0.00 6.73 6.73 96 1020.8
20260504044755 13 221 0.0 0.0 0.00 6.73 6.73 96 1020.9
20260504044252 13 221 0.0 0.0 0.00 6.73 6.73 96 1021.0
20260504043749 13 221 0.0 0.0 0.00 6.73 6.73 96 1020.8
20260504043246 13 221 0.0 0.0 0.00 6.73 6.73 96 1020.8
20260504042744 13 221 0.0 0.0 0.00 6.73 6.73 96 1020.9
20260504042240 13 221 0.0 0.0 0.00 6.73 6.73 96 1020.9
20260504041736 13 221 0.0 0.0 0.00 6.73 6.73 96 1020.8
20260504041232 13 221 0.0 0.0 0.00 6.73 6.73 95 1021.0
20260504040729 13 221 0.0 0.0 0.00 6.73 6.73 95 1020.7
20260504040226 13 221 0.0 0.0 0.00 6.73 6.73 95 1021.1
20260504035722 13 221 0.0 0.0 0.00 6.73 6.73 95 1021.0
20260504035220 13 221 0.0 0.0 0.00 6.73 6.73 95 1020.9
20260504034717 13 221 0.0 0.0 0.00 6.73 6.73 95 1020.8
20260504034213 13 221 0.0 0.0 0.00 6.73 6.73 94 1020.8
20260504033706 14 221 0.0 0.0 0.00 6.73 6.73 94 1021.0
20260504033203 14 221 0.0 0.0 0.00 6.73 6.73 93 1020.9
20260504032700 14 221 0.0 0.0 0.00 6.73 6.73 93 1020.8
20260504032157 14 221 0.0 0.0 0.00 6.73 6.73 93 1020.9
20260504031654 14 221 0.0 0.0 0.00 6.73 6.73 93 1021.0
20260504031150 14 221 0.0 0.0 0.00 6.73 6.73 92 1020.9
20260504030647 14 221 0.0 0.0 0.00 6.73 6.73 92 1021.0
20260504030143 15 221 0.0 0.0 0.00 6.73 6.73 91 1020.8
20260504025640 15 221 0.0 0.0 0.00 6.73 6.73 91 1021.0
20260504025137 15 221 0.0 0.0 0.00 6.73 6.73 90 1020.7
20260504024634 15 221 0.0 0.0 0.00 6.73 6.73 89 1021.0
20260504024130 15 221 0.0 0.0 0.00 6.73 6.73 88 1020.8
20260504023628 15 221 0.0 0.0 0.00 6.73 6.73 89 1020.9
20260504023124 15 221 0.0 0.0 0.00 6.73 6.73 89 1020.6
20260504022620 15 221 0.0 0.0 0.00 6.73 6.73 88 1020.8
20260504022115 15 221 0.0 0.0 0.00 6.73 6.73 87 1020.7
20260504021614 16 221 0.0 0.0 0.00 6.73 6.73 85 1020.5
20260504021110 16 221 0.0 0.0 0.00 6.73 6.73 84 1020.6
20260504020607 16 221 0.0 0.0 0.00 6.73 6.73 84 1020.4
20260504015600 16 221 0.0 0.0 0.00 6.73 6.73 82 1020.0
20260504015055 16 221 0.0 0.0 0.00 6.73 6.73 81 1020.1
20260504014552 17 221 0.0 0.0 0.00 6.73 6.73 80 1020.2
20260504014044 17 221 0.0 0.0 0.00 6.73 6.73 79 1020.1
20260504013541 17 221 0.0 0.0 0.00 6.73 6.73 79 1020.2
20260504013038 17 221 0.0 0.0 0.00 6.73 6.73 78 1019.9
20260504012535 17 221 0.0 0.0 0.00 6.73 6.73 78 1020.1
20260504012027 17 221 0.0 0.0 0.00 6.73 6.73 77 1020.0
20260504011523 17 221 0.0 0.0 0.00 6.73 6.73 76 1020.1
20260504011020 18 221 0.0 0.0 0.00 6.73 6.73 74 1019.8
20260504010515 18 221 0.0 0.0 0.00 6.73 6.73 74 1019.9
20260504010011 18 221 0.0 0.0 0.00 6.73 6.73 73 1019.7
20260504005509 18 221 0.0 0.0 0.00 6.73 6.73 72 1019.7
20260504005006 18 221 0.0 0.0 0.00 6.73 6.73 72 1019.8
20260504004504 19 221 0.0 0.0 0.00 6.73 6.73 69 1020.0
20260504004000 19 221 0.0 0.0 0.00 6.73 6.73 70 1019.8
20260504003456 19 221 0.0 0.0 0.00 6.73 6.73 68 1019.7
20260504002954 20 221 0.0 0.0 0.00 6.73 6.73 67 1019.5
20260504002450 20 221 0.0 0.0 0.00 6.73 6.73 66 1019.7
20260504001948 20 221 0.0 0.0 0.00 6.73 6.73 64 1019.6
20260504001445 20 221 0.0 0.0 0.00 6.73 6.73 62 1019.8
20260504000942 21 221 0.0 0.0 0.00 6.73 6.73 61 1019.8
20260504000439 21 221 0.0 0.0 0.00 6.73 6.73 56 1019.6
20260503235936 21 221 0.0 0.0 0.00 6.73 6.73 58 1019.6
20260503235434 21 221 0.0 0.0 0.00 6.73 6.73 54 1019.6
20260503234931 21 221 0.0 0.0 0.00 6.73 6.73 56 1019.7
20260503234428 22 221 0.0 0.0 0.00 6.73 6.73 54 1019.8
20260503233926 22 221 0.0 0.0 0.00 6.73 6.73 55 1019.6
20260503233423 22 221 0.0 1.6 0.00 6.73 6.73 52 1019.8
20260503232919 22 221 0.0 0.0 0.00 6.73 6.73 52 1019.8
20260503232416 22 221 0.0 0.0 0.00 6.73 6.73 52 1019.9
20260503231914 22 221 0.0 0.0 0.00 6.73 6.73 51 1019.8
20260503231411 22 221 0.0 0.0 0.00 6.73 6.73 49 1020.0
20260503230907 22 221 0.0 0.0 0.00 6.73 6.73 49 1019.7
20260503230404 22 221 0.0 0.0 0.00 6.73 6.73 49 1019.8
20260503225902 22 221 0.0 0.0 0.00 6.73 6.73 49 1019.9
20260503225357 22 221 0.0 0.0 0.00 6.73 6.73 50 1019.7
20260503224854 22 221 0.0 0.0 0.00 6.73 6.73 49 1019.9
20260503224351 22 222 0.0 1.6 0.00 6.73 6.73 49 1020.0
20260503223849 22 227 1.6 1.6 0.00 6.73 6.73 48 1020.0
20260503223346 22 232 0.0 0.0 0.00 6.73 6.73 48 1019.9
20260503222842 22 225 0.0 0.0 0.00 6.73 6.73 49 1019.8
20260503222340 23 228 0.0 0.0 0.00 6.73 6.73 49 1019.9
20260503221838 23 238 0.0 0.0 0.00 6.73 6.73 47 1020.0
20260503221337 23 243 0.0 1.6 0.00 6.73 6.73 48 1019.9
20260503220832 23 232 0.0 3.2 0.00 6.73 6.73 49 1020.1
20260503220329 23 260 0.0 3.2 0.00 6.73 6.73 48 1020.3
20260503215826 23 203 0.0 1.6 0.00 6.73 6.73 47 1020.3
20260503215323 23 215 0.0 1.6 0.00 6.73 6.73 49 1020.5
20260503214821 23 215 0.0 3.2 0.00 6.73 6.73 49 1020.2
20260503214318 23 218 0.0 1.6 0.00 6.73 6.73 47 1020.4
20260503213815 23 224 1.6 3.2 0.00 6.73 6.73 48 1020.4
20260503213313 23 343 1.6 3.2 0.00 6.73 6.73 48 1020.2
20260503212810 23 343 1.6 3.2 0.00 6.73 6.73 47 1020.5
20260503212308 23 343 1.6 3.2 0.00 6.73 6.73 46 1020.7
20260503211805 23 17 0.0 1.6 0.00 6.73 6.73 44 1020.5
20260503211302 23 17 0.0 3.2 0.00 6.73 6.73 43 1020.8
20260503210802 23 17 1.6 3.2 0.00 6.73 6.73 42 1020.9
20260503210259 23 17 3.2 3.2 0.00 6.73 6.73 41 1020.8
20260503205754 23 17 0.0 1.6 0.00 6.73 6.73 44 1020.8
20260503205251 23 131 1.6 3.2 0.00 6.73 6.73 43 1021.1
20260503204748 24 167 0.0 0.0 0.00 6.73 6.73 42 1021.1
20260503204245 23 167 0.0 1.6 0.00 6.73 6.73 41 1021.2
20260503203742 24 167 0.0 0.0 0.00 6.73 6.73 39 1021.2
20260503203240 23 271 0.0 3.2 0.00 6.73 6.73 42 1021.3
20260503202737 23 6 1.6 4.8 0.00 6.73 6.73 39 1021.2
20260503202235 23 295 1.6 3.2 0.00 6.73 6.73 37 1021.4
20260503201732 23 340 3.2 4.8 0.00 6.73 6.73 48 1021.5
20260503201229 23 279 1.6 3.2 0.00 6.73 6.73 43 1021.6
20260503200725 23 275 1.6 3.2 0.00 6.73 6.73 43 1021.5
20260503200222 23 274 0.0 1.6 0.00 6.73 6.73 40 1021.7
20260503195719 23 279 1.6 1.6 0.00 6.73 6.73 45 1021.9
20260503195216 23 314 4.8 6.4 0.00 6.73 6.73 39 1021.8
20260503194714 23 351 0.0 4.8 0.00 6.73 6.73 41 1021.7
20260503194209 23 350 0.0 1.6 0.00 6.73 6.73 43 1022.1
20260503193706 23 351 1.6 4.8 0.00 6.73 6.73 38 1022.2
20260503193202 23 332 1.6 4.8 0.00 6.73 6.73 39 1022.3
20260503192658 23 40 1.6 4.8 0.00 6.73 6.73 42 1022.2
20260503192153 23 252 0.0 1.6 0.00 6.73 6.73 40 1022.6
20260503191649 23 43 1.6 1.6 0.00 6.73 6.73 39 1022.3
20260503191146 23 43 0.0 3.2 0.00 6.73 6.73 41 1022.5
20260503190638 23 43 0.0 0.0 0.00 6.73 6.73 43 1022.4
20260503190135 23 43 0.0 0.0 0.00 6.73 6.73 42 1022.5
20260503185632 22 43 0.0 1.6 0.00 6.73 6.73 41 1022.7
20260503185127 23 334 0.0 3.2 0.00 6.73 6.73 37 1022.8
20260503184622 23 269 0.0 1.6 0.00 6.73 6.73 42 1022.8
20260503184118 22 331 1.6 3.2 0.00 6.73 6.73 41 1022.9
20260503183615 22 325 1.6 3.2 0.00 6.73 6.73 38 1023.0
20260503183112 23 195 0.0 3.2 0.00 6.73 6.73 40 1023.1
20260503182610 22 17 3.2 4.8 0.00 6.73 6.73 44 1023.2
20260503182108 23 347 1.6 3.2 0.00 6.73 6.73 39 1023.3
20260503181605 23 28 0.0 1.6 0.00 6.73 6.73 38 1023.4
20260503181101 23 28 0.0 0.0 0.00 6.73 6.73 47 1023.4
20260503180559 22 28 0.0 0.0 0.00 6.73 6.73 44 1023.5
20260503180056 22 28 1.6 3.2 0.00 6.73 6.73 41 1023.5
20260503175553 22 28 0.0 1.6 0.00 6.73 6.73 39 1023.3
20260503175050 22 9 3.2 4.8 0.00 6.73 6.73 41 1023.4
20260503174542 22 281 0.0 0.0 0.00 6.73 6.73 44 1023.5
20260503174038 22 281 3.2 4.8 0.00 6.73 6.73 43 1023.7
20260503173533 22 71 0.0 1.6 0.00 6.73 6.73 43 1023.8
20260503173030 22 71 0.0 0.0 0.00 6.73 6.73 40 1023.7
20260503172527 22 71 0.0 0.0 0.00 6.73 6.73 44 1023.8
20260503172024 22 71 0.0 1.6 0.00 6.73 6.73 43 1023.9
20260503171520 22 71 0.0 1.6 0.00 6.73 6.73 41 1023.8
20260503171018 22 71 0.0 3.2 0.00 6.73 6.73 41 1024.2
20260503170514 22 71 0.0 1.6 0.00 6.73 6.73 42 1024.2